[[{"header":{"parameterUnit":"m.s-1","parameterCategory":1,"la1":30.2991,"la2":30.254,"lo1":-89.0895,"lo2":-89.0444,"dy":0.0017,"dx":0.0017,"nx":28,"ny":28,"refTime":"2025-03-17T21:00:00:Z","depth":0,"parameterNumber":2,"parameterNumberName":"U-component_of_WINDS"},"data":[0,0,0,0,0,0,0,0,0,0,0,0,0,0,0,0,0,0,0,0,0,0,0,0,0,0,0,0,0,0,0,0,0,0,0,0,0,0,0,0,0,0,0,0,0,0,0,0,0,0,0,0,0,0,0,0,0,0,-0.2862,-0.2862,0,-0.2899,-0.29,-0.29,-0.2924,-0.2924,-0.2924,-0.2924,-0.2959,-0.296,-0.2961,0,0,0,0,0,0,0,0,0,0,0,0,0,-0.2803,-0.2804,-0.2862,-0.2862,-0.2862,-0.2899,-0.29,-0.29,-0.2924,-0.2924,-0.2924,-0.2924,-0.2959,-0.296,-0.2961,0,0,0,0,0,0,0,0,0,0,0,0,0,-0.2834,-0.2805,-0.2861,-0.2879,-0.2881,-0.2899,-0.29,-0.2901,-0.2924,-0.2924,-0.2924,-0.2924,-0.2959,-0.296,-0.2961,-0.2964,0,0,-0.2965,-0.2965,0,0,0,0,0,0,0,0,-0.2832,-0.2836,-0.2876,-0.2878,-0.288,-0.2907,-0.2892,-0.2922,-0.2924,-0.2907,-0.2924,-0.2925,-0.2941,-0.2944,-0.2951,-0.2966,-0.2967,-0.2965,-0.2965,-0.2966,-0.2966,0,0,0,0,0,0,0,-0.283,-0.2834,-0.2876,-0.2876,-0.2879,-0.2883,-0.2887,-0.2898,-0.2923,-0.2909,-0.2911,-0.2915,-0.2943,-0.2949,-0.2952,-0.2968,-0.2965,-0.2966,-0.2966,-0.2967,-0.2983,-0.2983,0,0,0,0,0,0,-0.2826,-0.2832,-0.2875,-0.2878,-0.2856,-0.2883,-0.2889,-0.2898,-0.2923,-0.2927,-0.2915,-0.2916,-0.2947,-0.295,-0.2953,-0.2956,-0.2966,-0.2967,-0.2968,-0.2984,-0.2983,-0.2983,0,0,0,0,0,0,-0.2824,-0.2829,-0.2874,-0.2855,-0.2861,-0.2884,-0.2895,-0.2899,-0.2906,-0.2927,-0.2931,-0.2918,-0.2948,-0.2951,-0.2961,-0.2958,-0.2968,-0.2969,-0.2984,-0.2984,-0.2983,-0.2964,0,0,0,0,0,0,-0.2822,-0.2829,-0.2832,-0.2855,-0.2862,-0.2883,-0.2895,-0.2899,-0.2908,-0.291,-0.2931,-0.2934,-0.2948,-0.2959,-0.2962,-0.2959,-0.297,-0.2984,-0.2984,-0.2983,-0.2965,-0.2963,-0.2961,0,0,0,0,0,-0.282,-0.2825,-0.2832,-0.2837,-0.2867,-0.2883,-0.2886,-0.2903,-0.2908,-0.291,-0.2923,-0.2934,-0.2957,-0.2959,-0.2963,-0.2961,-0.2985,-0.2984,-0.2983,-0.2965,-0.2963,-0.2961,0,0,0,0,0,0,-0.28,-0.2828,-0.2837,-0.2849,-0.2863,-0.2887,-0.289,-0.29,-0.2912,-0.2914,-0.2932,-0.2937,-0.2943,-0.2953,-0.2955,-0.2963,-0.2972,-0.2972,-0.2957,-0.2955,-0.2953,-0.295,-0.2971,0,0,0,0,0,-0.2797,-0.2809,-0.2832,-0.2841,-0.2848,-0.2867,-0.2875,-0.2886,-0.2901,-0.2907,-0.2921,-0.2934,-0.2943,-0.295,-0.296,-0.2966,-0.2969,-0.2966,-0.2964,-0.2962,-0.2962,-0.2962,-0.296,-0.2981,-0.2981,-0.2981,0,0,-0.2791,-0.2808,-0.2814,-0.2837,-0.285,-0.2859,-0.2872,-0.2883,-0.2889,-0.2908,-0.2918,-0.2928,-0.2943,-0.295,-0.2953,-0.2958,-0.2957,-0.2962,-0.296,-0.2961,-0.2962,-0.296,-0.2958,-0.298,-0.2981,-0.2981,0,0,-0.2785,-0.28,-0.2807,-0.2819,-0.2837,-0.285,-0.2851,-0.2872,-0.288,-0.289,-0.2903,-0.291,-0.2928,-0.2937,-0.2944,-0.2937,-0.2946,-0.294,-0.293,-0.293,-0.2928,-0.2927,-0.2922,-0.2921,-0.294,-0.294,-0.294,0,-0.2774,-0.2791,-0.2809,-0.2818,-0.2827,-0.2844,-0.285,-0.286,-0.288,-0.2884,-0.289,-0.291,-0.2922,-0.2929,-0.2927,-0.2933,-0.2933,-0.2938,-0.2928,-0.2926,-0.2925,-0.2921,-0.2919,-0.2939,-0.2939,-0.2939,-0.2939,0,-0.2776,-0.2787,-0.2791,-0.281,-0.2819,-0.2826,-0.2843,-0.2849,-0.2859,-0.287,-0.2877,-0.2892,-0.2904,-0.2907,-0.2916,-0.2915,-0.2917,-0.2924,-0.2933,-0.2922,-0.2918,-0.2917,-0.2937,-0.2937,-0.2938,-0.2938,0,0,-0.2761,-0.2788,-0.2789,-0.2796,-0.2816,-0.2824,-0.283,-0.2843,-0.2846,-0.2859,-0.2863,-0.2876,-0.2882,-0.289,-0.29,-0.2901,-0.2891,-0.2908,-0.2909,-0.2903,-0.2887,-0.288,-0.2878,-0.2897,-0.2897,-0.2897,-0.2885,0,-0.2756,-0.2771,-0.2785,-0.2793,-0.2802,-0.2816,-0.2822,-0.2833,-0.2842,-0.2849,-0.2859,-0.2867,-0.2877,-0.2881,-0.2882,-0.2892,-0.2888,-0.2893,-0.2899,-0.2899,-0.2894,-0.2876,-0.287,-0.2858,-0.2883,-0.2883,-0.2883,0,-0.2754,-0.2765,-0.2774,-0.279,-0.2794,-0.2799,-0.281,-0.2817,-0.2828,-0.2835,-0.2842,-0.2853,-0.2857,-0.2865,-0.287,-0.2873,-0.2876,-0.2881,-0.2881,-0.2881,-0.289,-0.2875,-0.2855,-0.2852,-0.2881,-0.2881,-0.2882,0,-0.2739,-0.2757,-0.2763,-0.277,-0.2789,-0.2791,-0.2799,-0.2811,-0.2816,-0.2825,-0.2828,-0.2837,-0.2841,-0.2847,-0.2858,-0.2863,-0.2861,-0.287,-0.2864,-0.2864,-0.2863,-0.2863,-0.2842,-0.2867,-0.2867,-0.2867,-0.2867,0,-0.2733,-0.2737,-0.2757,-0.2761,-0.2765,-0.278,-0.2783,-0.2792,-0.2801,-0.2805,-0.2818,-0.2822,-0.2837,-0.2841,-0.285,-0.2851,-0.2853,-0.2857,-0.2859,-0.2855,-0.2855,-0.2857,-0.2858,-0.2867,-0.2867,-0.2867,-0.2867,0,-0.2717,-0.2731,-0.2739,-0.2755,-0.2759,-0.2761,-0.2775,-0.2778,-0.2787,-0.2791,-0.2793,-0.2807,-0.2813,-0.2824,-0.2833,-0.2839,-0.2837,-0.2842,-0.2833,-0.2834,-0.2827,-0.2827,-0.2806,-0.2803,-0.2831,-0.2831,-0.283,0,-0.2712,-0.2716,-0.2732,-0.2735,-0.2743,-0.2749,-0.2754,-0.2768,-0.2772,-0.2783,-0.2784,-0.279,-0.2796,-0.2803,-0.2813,-0.2819,-0.2823,-0.2815,-0.2823,-0.2818,-0.282,-0.2819,-0.2818,-0.2813,-0.2812,-0.2812,-0.2812,0,-0.27,-0.2706,-0.2714,-0.2722,-0.2728,-0.2735,-0.2743,-0.2745,-0.276,-0.2764,-0.2769,-0.2773,-0.2781,-0.2786,-0.2792,-0.2798,-0.2806,-0.2809,-0.2807,-0.2803,-0.2797,-0.2798,-0.2826,-0.2809,-0.2809,-0.281,-0.281,-0.281,-0.2689,-0.2691,-0.2702,-0.2709,-0.2716,-0.2722,-0.2725,-0.2733,-0.2739,-0.2746,-0.2753,-0.2757,-0.2765,-0.2774,-0.2779,-0.2781,-0.2785,-0.2784,-0.2783,-0.2782,-0.278,-0.2798,-0.2782,-0.2782,-0.2782,-0.2782,-0.2783,0,-0.2676,-0.2683,-0.2689,-0.2699,-0.2703,-0.2711,-0.2719,-0.2722,-0.2725,-0.2732,-0.2737,-0.2741,-0.2745,-0.2754,-0.2758,-0.2757,-0.2761,-0.2758,-0.2757,-0.2758,-0.2776,-0.2776,-0.2755,-0.2755,-0.2755,-0.2755,-0.2755,-0.2755,-0.267,-0.2674,-0.268,-0.2686,-0.2692,-0.2696,-0.27,-0.2704,-0.271,-0.2714,-0.2717,-0.2723,-0.273,-0.2734,-0.2736,-0.2739,-0.2739,-0.2734,-0.2737,-0.2754,-0.2757,-0.276,-0.2759,-0.2734,-0.2734,-0.2718,-0.2718,-0.2718]},{"header":{"parameterUnit":"m.s-1","parameterCategory":1,"la1":30.2991,"la2":30.254,"lo1":-89.0895,"lo2":-89.0444,"dy":0.0017,"dx":0.0017,"nx":28,"ny":28,"refTime":"2025-03-17T21:00:00:Z","depth":0,"parameterNumber":3,"parameterNumberName":"V-component_of_WINDS"},"data":[0,0,0,0,0,0,0,0,0,0,0,0,0,0,0,0,0,0,0,0,0,0,0,0,0,0,0,0,0,0,0,0,0,0,0,0,0,0,0,0,0,0,0,0,0,0,0,0,0,0,0,0,0,0,0,0,0,0,5.4721,5.4721,0,5.4737,5.4737,5.4738,5.4727,5.4726,5.4726,5.4725,5.4739,5.474,5.474,0,0,0,0,0,0,0,0,0,0,0,0,0,5.4678,5.4679,5.4721,5.4721,5.4721,5.4737,5.4737,5.4738,5.4727,5.4726,5.4726,5.4725,5.4738,5.4739,5.474,0,0,0,0,0,0,0,0,0,0,0,0,0,5.4696,5.4679,5.4721,5.4718,5.4718,5.4737,5.4737,5.4738,5.4727,5.4726,5.4726,5.4725,5.4738,5.4739,5.4741,5.4763,0,0,5.4744,5.4745,0,0,0,0,0,0,0,0,5.4695,5.4697,5.4718,5.4718,5.4718,5.4729,5.4727,5.4746,5.4727,5.4723,5.4725,5.4724,5.4736,5.4737,5.4742,5.4763,5.4764,5.4744,5.4745,5.4746,5.4746,0,0,0,0,0,0,0,5.4694,5.4697,5.4727,5.4718,5.4718,5.4715,5.4717,5.4731,5.4733,5.4724,5.4723,5.4725,5.4736,5.4741,5.4742,5.4764,5.4744,5.4745,5.4746,5.4747,5.4808,5.4809,0,0,0,0,0,0,5.4693,5.4696,5.4726,5.4728,5.4704,5.4717,5.4718,5.4726,5.4733,5.4734,5.4726,5.4725,5.4739,5.4741,5.4743,5.4772,5.4746,5.4747,5.4747,5.4808,5.4809,5.481,0,0,0,0,0,0,5.4692,5.4696,5.4726,5.4712,5.4715,5.4718,5.4727,5.4727,5.4732,5.4735,5.4735,5.4731,5.4739,5.4741,5.4759,5.4772,5.4747,5.4748,5.4807,5.4808,5.4809,5.4828,0,0,0,0,0,0,5.4691,5.4696,5.4704,5.4712,5.4716,5.4742,5.4728,5.4728,5.4735,5.4733,5.4739,5.474,5.4738,5.4757,5.476,5.4773,5.4749,5.4805,5.4807,5.4809,5.4826,5.483,5.4833,0,0,0,0,0,5.469,5.4707,5.4705,5.4708,5.4727,5.4743,5.4745,5.4744,5.4736,5.4744,5.4747,5.474,5.477,5.4759,5.4762,5.4776,5.4805,5.4807,5.4809,5.4825,5.4829,5.4833,0,0,0,0,0,0,5.4698,5.4708,5.4705,5.4726,5.4734,5.4741,5.4752,5.4748,5.4758,5.4756,5.4753,5.4754,5.4774,5.4776,5.4764,5.48,5.4786,5.4789,5.4797,5.4801,5.4805,5.4804,5.475,0,0,0,0,0,5.4703,5.4716,5.4723,5.4741,5.4746,5.4748,5.4755,5.4754,5.4762,5.4764,5.4768,5.4775,5.4787,5.4794,5.4804,5.4827,5.4829,5.4838,5.4841,5.4844,5.4846,5.4862,5.4866,5.4816,5.4816,5.4816,0,0,5.4712,5.4719,5.4727,5.4743,5.4749,5.4763,5.4751,5.4765,5.4775,5.4766,5.4785,5.4788,5.4795,5.4817,5.4826,5.4819,5.4861,5.4847,5.4849,5.485,5.4864,5.4869,5.4873,5.4818,5.4818,5.4817,0,0,5.4736,5.4742,5.4759,5.4766,5.4777,5.4779,5.4783,5.4792,5.4795,5.4813,5.4808,5.482,5.4839,5.4846,5.4852,5.4883,5.4877,5.4886,5.4904,5.4918,5.4922,5.4926,5.4939,5.4944,5.4889,5.4889,5.4889,0,5.4745,5.4767,5.4767,5.4784,5.4792,5.4787,5.4805,5.4811,5.4824,5.483,5.4822,5.4849,5.4853,5.4878,5.4886,5.489,5.4896,5.4885,5.4922,5.4926,5.4929,5.4941,5.4946,5.489,5.489,5.489,5.489,0,5.4779,5.4794,5.4807,5.4822,5.4832,5.4848,5.4852,5.4861,5.486,5.4864,5.4884,5.489,5.4904,5.4909,5.4907,5.4934,5.493,5.4922,5.4909,5.4935,5.4947,5.4951,5.4892,5.4891,5.4891,5.4891,0,0,5.4806,5.4826,5.483,5.4839,5.4852,5.4863,5.4881,5.4896,5.4905,5.4915,5.493,5.4948,5.4943,5.4949,5.4948,5.4961,5.4989,5.4952,5.4952,5.496,5.5022,5.5029,5.5034,5.4985,5.4986,5.4987,5.5022,0,5.4833,5.4865,5.4868,5.4896,5.4912,5.4909,5.4924,5.4934,5.4939,5.4952,5.4956,5.4971,5.4961,5.4965,5.4978,5.4983,5.5001,5.498,5.5,5.5001,5.4999,5.504,5.5046,5.5078,5.5026,5.5027,5.5028,0,5.4866,5.4881,5.4912,5.4927,5.4933,5.4947,5.4963,5.4976,5.4988,5.499,5.5,5.4999,5.5017,5.5004,5.503,5.5016,5.5024,5.5028,5.503,5.5032,5.5016,5.5044,5.5088,5.5094,5.5034,5.5034,5.5033,0,5.4886,5.4912,5.4936,5.4943,5.496,5.497,5.4977,5.4989,5.4999,5.5013,5.502,5.5034,5.5043,5.5055,5.5057,5.5047,5.5085,5.507,5.5088,5.5088,5.5096,5.5096,5.5144,5.51,5.51,5.51,5.51,0,5.4915,5.4934,5.4945,5.4959,5.4982,5.4985,5.5007,5.5014,5.5025,5.5041,5.5039,5.5053,5.5056,5.5071,5.5073,5.5097,5.51,5.5103,5.5103,5.5104,5.5104,5.5109,5.5108,5.5101,5.5101,5.5101,5.51,0,5.494,5.4947,5.4973,5.4989,5.4993,5.5009,5.5023,5.5037,5.5042,5.5062,5.5067,5.5076,5.5094,5.5099,5.5119,5.5121,5.5149,5.5147,5.5146,5.5146,5.5164,5.5163,5.5218,5.5226,5.5176,5.5177,5.5177,0,5.4958,5.4974,5.4993,5.5004,5.5013,5.5031,5.5043,5.5048,5.5059,5.5077,5.5089,5.5108,5.5123,5.5153,5.5161,5.5178,5.5177,5.5195,5.5179,5.518,5.5179,5.5179,5.5181,5.5198,5.5198,5.5199,5.5199,0,5.4991,5.4995,5.5012,5.5032,5.5047,5.5062,5.5076,5.5086,5.5093,5.5107,5.5127,5.514,5.5164,5.5183,5.5201,5.5208,5.5206,5.5205,5.521,5.5211,5.521,5.5213,5.5156,5.5203,5.5203,5.5202,5.5202,5.5202,5.5014,5.5029,5.5046,5.5066,5.5079,5.5094,5.5109,5.5118,5.5136,5.5157,5.5159,5.5181,5.5196,5.522,5.5229,5.5247,5.5241,5.5248,5.525,5.5252,5.5255,5.5207,5.525,5.525,5.525,5.525,5.525,0,5.5048,5.506,5.5079,5.5101,5.5118,5.5116,5.5134,5.5147,5.5168,5.5183,5.5199,5.5224,5.5244,5.5255,5.5275,5.5287,5.5287,5.5292,5.5292,5.5294,5.5258,5.5252,5.5293,5.5292,5.5292,5.5292,5.5292,5.5292,5.5067,5.5094,5.5101,5.5135,5.5146,5.517,5.518,5.5194,5.5207,5.5236,5.5253,5.5261,5.5275,5.5296,5.5315,5.5317,5.5325,5.5332,5.5334,5.53,5.5296,5.5292,5.5287,5.5333,5.5333,5.5369,5.5369,5.5369]}]]